Regional Weather Roundup
Issued by NWS

Home | Current Version | Previous Version | Graphics & Text | Print | Product List | Glossary On
Versions: 1 2 3 4 5 6 7 8 9 10 11 12 13 14 15 16 17 18 19 20 21 22 23 24 25 26 27
000
ASUS45 KBOU 201707
RWRCO

WEATHER ROUNDUP FOR COLORADO
NATIONAL WEATHER SERVICE DENVER/BOULDER CO
1100 AM MDT SUN AUG 20 2017

NOTE: "FAIR" INDICATES FEW OR NO CLOUDS BELOW 12000 FEET WITH NO
SIGNIFICANT WEATHER AND/OR OBSTRUCTIONS TO VISIBILITY.

COZ001>005-013-030-031-201800-
...NORTHWEST COLORADO...

CITY           SKY/WX    TMP DP  RH WIND       PRES   REMARKS
CRAIG          FAIR      79  37  22 VRB3      30.21F
HAYDEN         FAIR      76  36  23 E7        30.25F
MEEKER         FAIR      75  38  26 CALM      30.22F
RABBIT EARS PA FAIR      59  34  38 W3        30.55R
STEAMBOAT SPGS FAIR      71  40  31 CALM      30.26S
WALDEN         FAIR      70  32  24 SE3       30.36S
$$

COZ006>008-011-201800-
...WEST CENTRAL VALLEYS...

CITY           SKY/WX    TMP DP  RH WIND       PRES   REMARKS
GRAND JUNCTION FAIR      79  39  23 S6        30.11F
MONTROSE       FAIR      75  42  30 N6        30.19S
EAGLE          FAIR      72  35  25 CALM      30.28F
RIFLE          FAIR      74  39  28 NW5       30.17F
DELTA          FAIR      79  37  22 CALM      30.15F
NUCLA          FAIR      77  36  22 CALM      30.22S
$$

COZ017>023-064>068-201800-
...SOUTHWEST COLORADO...

CITY           SKY/WX    TMP DP  RH WIND       PRES   REMARKS
DURANGO        FAIR      75  42  30 E8        30.23F
CORTEZ         FAIR      81  42  25 W5        30.17F
PAGOSA SPRINGS FAIR      74  39  28 CALM      30.31S
TELLURIDE      FAIR      73  26  17 SW3       30.42F
WOLF CREEK PAS FAIR      59  32  36 N3        30.68R
$$

COZ009-010-012-014-032>034-037-058>063-201800-
...CENTRAL COLORADO...

CITY           SKY/WX    TMP DP  RH WIND       PRES   REMARKS
ASPEN          FAIR      74  35  24 N6        30.31F
BUENA VISTA    FAIR      71  32  24 E3        30.34F
COPPER MTN     FAIR      59  25  27 NW10      30.65S
BERTHOUD PASS  FAIR      52  46  82 NW5       30.68S
COTTONWOOD PAS FAIR      70  28  21 E6        30.48S
GUNNISON       FAIR      65  36  34 SW3       30.35F
KREMMLING      FAIR      72  34  25 CALM      30.34F
LEADVILLE      FAIR      66  26  22 NW5       30.47S
MONARCH PASS   FAIR      55  28  35 W14G21    30.74S
SALIDA         FAIR      71  35  26 CALM      30.38F
SUNLIGHT       FAIR      61  32  33 CALM      30.58S
WILKERSON PASS FAIR      61  27  27 W3        30.62S
$$

COZ069>075-201800-
...SAN LUIS VALLEY/SANGRE DE CRISTO MOUNTAINS...

CITY           SKY/WX    TMP DP  RH WIND       PRES   REMARKS
ALAMOSA        FAIR      69  39  33 CALM      30.32S
DEL NORTE      FAIR      68  44  41 E3        30.36R
LA VETA PASS   NOT AVBL
SAGUACHE       FAIR      70  41  35 CALM      30.35S
$$

COZ035-036-038>040-201800-
...NORTHERN COLORADO FRONT RANGE...

CITY           SKY/WX    TMP DP  RH WIND       PRES   REMARKS
DENVER INTL AP FAIR      84  33  16 NE14G20   30.14R
DMNS CITY PARK   N/A     86  34  15 NE7G15    30.13S
AURORA         MOSUNNY   84  35  17 NE13      30.16R
FRONT RANGE AP FAIR      82  36  18 NE12G24   30.16R
ERIE MUNI ARPT FAIR      85  28  12 NE8       30.16S
BOULDER MUN AP FAIR      84  41  21 CALM      30.13R
CENTENNIAL     FAIR      83  33  16 VRB5      30.17R
BROOMFIELD     PTSUNNY   84  37  18 E7        30.16R
FORT COLLINS   FAIR      84  46  26 E8        30.11R
LONGMONT       FAIR      87  43  21 CALM      30.12S
$$

COZ041-046-047-076>085-087-088-201800-
...PIKES PEAK/PALMER DIVIDE AND SOUTHERN FOOTHILLS...

CITY           SKY/WX    TMP DP  RH WIND       PRES   REMARKS
COLO. SPRINGS  PTSUNNY   86  41  20 NE8       30.18S
A. F. ACADEMY  FAIR      82  37  20 N14       30.20R
SCHRIEVER AFB  FAIR      83  38  20 N7        30.19R
CHEYENNE MTN   FAIR      79  39  23 N6        30.19R
ELLICOTT       NOT AVBL
FALCON         FAIR      79  34  19 N8        30.25R
FORT CARSON    FAIR      84  44  24 NE5       30.15R
LIMON          FAIR      83  42  23 N16       30.13R
MONUMENT HILL  FAIR      75  37  25 N8        30.27S
CANON CITY     SUNNY     84  46  26 SW8       30.11S
WALSENBURG     FAIR      86  36  16 N3        30.17R
TRINIDAD       FAIR      84  44  24 NW5       30.14S
$$

COZ042>045-048>051-090-091-201800-
...NORTHEAST COLORADO...

CITY           SKY/WX    TMP DP  RH WIND       PRES   REMARKS
GREELEY ARPT   FAIR      75  48  38 E12       30.12R
AKRON          FAIR      80  44  27 N14       30.08S
BURLINGTON     FAIR      85  53  33 NW5       30.03R
WRAY           NOT AVBL
YUMA           FAIR      77  41  27 NW8       30.03S
STERLING       FAIR      75  57  53 N6        30.06S
HOLYOKE        FAIR      84  63  48 N8        30.02R
FORT MORGAN    FAIR      80  41  24 NE12      30.10S
$$

COZ086-089-092>099-201800-
...SOUTHEAST COLORADO...

CITY           SKY/WX    TMP DP  RH WIND       PRES   REMARKS
PUEBLO         FAIR      84  50  30 S6        30.06S
LA JUNTA       FAIR      81  56  42 CALM      30.03S
LAMAR          FAIR      82  55  39 NW3       29.98S
SPRINGFIELD      N/A     82  57  42 SW13G21   30.04R
$$




USA.gov is the U.S. government's official web portal to all federal, state and local government web resources and services.